Location: Ellingshausen
(50.5460°N, 10.4723°E)
Time: 05:59:11
(UTC+00:00)

Thor Agena Rocket - Pass Details

Date: 18 January 2026
Orbit: 755 x 801 km, 99.1° (Epoch: 18 February)

Event Time Altitude Azimuth Distance (km) Brightness Sun altitude
Rises 05:38:22 0° 18° (NNE) 3,247 6.8 -14.2°
Reaches altitude 10° 05:40:42 10° 22° (NNE) 2,322 6.1 -13.8°
Maximum altitude 05:45:46 61° 103° (ESE) 880 4.1 -13.1°
Drops below altitude 10° 05:50:52 10° 183° (S) 2,335 6.2 -12.3°
Sets 05:53:13 0° 187° (S) 3,266 6.9 -11.9°
